{"data":{"norad_id":63046,"intl_designator":"2025-034T","name":"STARLINK-32738","alt_names":[],"object_type":"PAYLOAD","status":"ACTIVE","operator":null,"country":"US","launch_date":"2025-02-18","launch_site_code":"AFETR","launch_vehicle":null,"mission":null,"orbit_class":"UNKNOWN","rcs_meters":null,"size_class":null,"mass_kg":null,"dimensions":null,"purposes":["comms"],"wikipedia_slug":null,"has_3d_model":false,"image_url":null,"decayed_at":null,"tle_current":{"epoch":"2026-09-21T21:12:57.040128Z","epoch_age_seconds":45638,"freshness":"FRESH","line1":"1 63046U 25034T   26264.88399352  .00017903  00000+0  53963-3 0  9998","line2":"2 63046  53.1588  63.3750 0001084 105.9612 254.1510 15.34406107 89176","mean_motion":15.34406107,"eccentricity":0.0001084,"inclination_deg":53.1588,"raan_deg":63.375,"arg_perigee_deg":105.9612,"mean_anomaly_deg":254.151,"bstar":0.00053963,"rev_number":8917,"period_min":93.847384563362,"perigee_km":461.94354386187,"apogee_km":463.42663409076,"semimajor_km":6840.8220889763,"source":"CELESTRAK","updated_at":"2026-09-22T09:00:49.747631Z"}}}